When you browse on this site, cookies collect data to enhance your experience and personalize the content and advertising you see.
Visit our Privacy Policy to learn more. By continuing to use the site, you agree to this use of cookies and data.
  • In Schweiz
  • Länderverzeichnis
  • Für 7 Tage
  • Wassertemperatur
  • Satellitenkarten
  • Wetterkarte
  • Widgets
  • user-avatar
    Anmelden

    Stündliche Wetter Pleskachivka

    Heute, 22 April, Montag

    Zeit Temperatur Niederschläge Wind Luftdruck Luftfeuchtigkeit
    00:00 +7°C° 0 mm 2 m/S 754 mmHg 47%
    01:00 +7°C° 0 mm 2 m/S 754 mmHg 48%
    02:00 +7°C° 0 mm 2 m/S 754 mmHg 48%
    03:00 +6°C° 0 mm 2 m/S 754 mmHg 49%
    04:00 +6°C° 0 mm 2 m/S 754 mmHg 50%
    05:00 +6°C° 0 mm 2 m/S 754 mmHg 51%
    06:00 +6°C° 0 mm 2 m/S 755 mmHg 52%
    07:00 +8°C° 0 mm 3 m/S 755 mmHg 48%
    08:00 +10°C° 0 mm 3 m/S 755 mmHg 45%
    09:00 +12°C° 0 mm 4 m/S 755 mmHg 41%
    10:00 +13°C° 0 mm 4 m/S 755 mmHg 38%
    11:00 +14°C° 0 mm 4 m/S 755 mmHg 34%
    12:00 +15°C° 0 mm 4 m/S 755 mmHg 30%
    13:00 +17°C° 0 mm 4 m/S 755 mmHg 31%
    14:00 +17°C° 0 mm 4 m/S 754 mmHg 32%
    15:00 +17°C° 0 mm 4 m/S 754 mmHg 32%
    16:00 +15°C° 0 mm 4 m/S 754 mmHg 37%
    17:00 +16°C° 0 mm 3 m/S 754 mmHg 41%
    18:00 +16°C° 0 mm 3 m/S 754 mmHg 45%
    19:00 +14°C° 0 mm 2 m/S 754 mmHg 48%
    20:00 +13°C° 0 mm 2 m/S 755 mmHg 51%
    21:00 +12°C° 0 mm 2 m/S 755 mmHg 54%
    22:00 +12°C° 0 mm 2 m/S 755 mmHg 55%
    23:00 +12°C° 0 mm 2 m/S 755 mmHg 55%

    Morgen, 23 April, Dienstag

    Zeit Temperatur Niederschläge Wind Luftdruck Luftfeuchtigkeit
    00:00 +12°C° 0 mm 1 m/S 756 mmHg 56%
    01:00 +11°C° 0 mm 1 m/S 756 mmHg 56%
    02:00 +11°C° 0 mm 1 m/S 756 mmHg 57%
    03:00 +11°C° 0 mm 1 m/S 756 mmHg 57%
    04:00 +10°C° 0 mm 1 m/S 756 mmHg 59%
    05:00 +10°C° 0 mm 1 m/S 756 mmHg 61%
    06:00 +10°C° 0 mm 1 m/S 756 mmHg 62%
    07:00 +11°C° 0 mm 1 m/S 756 mmHg 58%
    08:00 +13°C° 0 mm 1 m/S 757 mmHg 53%
    09:00 +14°C° 0 mm 1 m/S 757 mmHg 49%
    10:00 +15°C° 0 mm 1 m/S 757 mmHg 44%
    11:00 +16°C° 0 mm 1 m/S 757 mmHg 40%
    12:00 +18°C° 0 mm 1 m/S 757 mmHg 35%
    13:00 +18°C° 0 mm 1 m/S 757 mmHg 35%
    14:00 +18°C° 0 mm 1 m/S 757 mmHg 36%
    15:00 +18°C° 0 mm 1 m/S 757 mmHg 36%
    16:00 +18°C° 0 mm 1 m/S 757 mmHg 39%
    17:00 +17°C° 0 mm 2 m/S 756 mmHg 42%
    18:00 +17°C° 0 mm 2 m/S 756 mmHg 45%
    19:00 +15°C° 0 mm 2 m/S 756 mmHg 48%
    20:00 +14°C° 0 mm 1 m/S 757 mmHg 52%
    21:00 +13°C° 0 mm 1 m/S 757 mmHg 55%
    22:00 +12°C° 0 mm 1 m/S 757 mmHg 55%
    23:00 +12°C° 0 mm 1 m/S 757 mmHg 56%

    übermorgen, 24 April, Mittwoch

    Zeit Temperatur Niederschläge Wind Luftdruck Luftfeuchtigkeit
    00:00 +12°C° 0 mm 1 m/S 757 mmHg 57%
    01:00 +10°C° 0 mm 2 m/S 757 mmHg 57%
    02:00 +10°C° 0 mm 2 m/S 757 mmHg 58%
    03:00 +10°C° 0 mm 2 m/S 757 mmHg 58%
    04:00 +10°C° 0 mm 2 m/S 757 mmHg 61%
    05:00 +9°C° 0 mm 2 m/S 757 mmHg 63%
    06:00 +8°C° 0 mm 2 m/S 757 mmHg 65%
    07:00 +10°C° 0 mm 3 m/S 757 mmHg 61%
    08:00 +12°C° 0 mm 3 m/S 757 mmHg 56%
    09:00 +14°C° 0 mm 3 m/S 757 mmHg 52%
    10:00 +17°C° 0 mm 3 m/S 757 mmHg 48%
    11:00 +18°C° 0 mm 4 m/S 757 mmHg 43%
    12:00 +19°C° 0 mm 4 m/S 757 mmHg 39%
    13:00 +20°C° 0 mm 4 m/S 756 mmHg 39%
    14:00 +20°C° 0 mm 4 m/S 756 mmHg 39%
    15:00 +20°C° 0 mm 4 m/S 756 mmHg 40%
    16:00 +20°C° 0 mm 4 m/S 756 mmHg 43%
    17:00 +20°C° 0 mm 3 m/S 756 mmHg 46%
    18:00 +19°C° 0 mm 3 m/S 756 mmHg 49%
    19:00 +18°C° 0 mm 2 m/S 756 mmHg 53%
    20:00 +16°C° 0 mm 2 m/S 756 mmHg 57%
    21:00 +15°C° 0 mm 2 m/S 756 mmHg 61%
    22:00 +14°C° 0 mm 2 m/S 756 mmHg 63%
    23:00 +14°C° 0 mm 2 m/S 756 mmHg 64%

    25 April, Donnerstag

    Zeit Temperatur Niederschläge Wind Luftdruck Luftfeuchtigkeit
    00:00 +13°C° 0 mm 2 m/S 756 mmHg 66%
    01:00 +13°C° 0 mm 2 m/S 756 mmHg 67%
    02:00 +12°C° 0 mm 2 m/S 756 mmHg 68%
    03:00 +12°C° 0 mm 2 m/S 756 mmHg 70%
    04:00 +12°C° 0 mm 2 m/S 756 mmHg 71%
    05:00 +12°C° 0 mm 2 m/S 756 mmHg 72%
    06:00 +10°C° 0 mm 2 m/S 756 mmHg 74%
    07:00 +14°C° 0 mm 2 m/S 756 mmHg 68%
    08:00 +16°C° 0 mm 3 m/S 757 mmHg 62%
    09:00 +18°C° 0 mm 3 m/S 757 mmHg 57%
    10:00 +19°C° 0 mm 3 m/S 757 mmHg 51%
    11:00 +20°C° 0 mm 3 m/S 757 mmHg 46%
    12:00 +22°C° 0 mm 3 m/S 756 mmHg 41%
    13:00 +22°C° 0 mm 3 m/S 756 mmHg 40%
    14:00 +24°C° 0 mm 3 m/S 756 mmHg 38%
    15:00 +24°C° 0 mm 3 m/S 756 mmHg 37%
    16:00 +24°C° 0 mm 2 m/S 755 mmHg 40%
    17:00 +24°C° 0 mm 2 m/S 755 mmHg 43%
    18:00 +23°C° 0 mm 2 m/S 755 mmHg 46%
    19:00 +21°C° 0 mm 1 m/S 755 mmHg 49%
    20:00 +20°C° 0 mm 1 m/S 755 mmHg 53%
    21:00 +18°C° 0 mm 1 m/S 755 mmHg 57%
    22:00 +16°C° 0 mm 1 m/S 755 mmHg 59%
    23:00 +16°C° 0 mm 1 m/S 755 mmHg 61%

    26 April, Freitag

    Zeit Temperatur Niederschläge Wind Luftdruck Luftfeuchtigkeit
    00:00 +15°C° 0 mm 1 m/S 755 mmHg 63%
    01:00 +15°C° 0 mm 1 m/S 755 mmHg 64%
    02:00 +15°C° 0 mm 1 m/S 755 mmHg 66%
    03:00 +13°C° 0 mm 0 m/S 755 mmHg 67%
    04:00 +14°C° 0 mm 1 m/S 755 mmHg 68%
    05:00 +14°C° 0 mm 1 m/S 755 mmHg 69%
    06:00 +14°C° 0 mm 1 m/S 754 mmHg 70%
    07:00 +16°C° 0 mm 1 m/S 755 mmHg 64%
    08:00 +19°C° 0 mm 1 m/S 755 mmHg 58%
    09:00 +21°C° 0 mm 1 m/S 755 mmHg 53%
    10:00 +22°C° 0 mm 1 m/S 754 mmHg 48%
    11:00 +23°C° 0 mm 1 m/S 754 mmHg 43%
    12:00 +24°C° 0 mm 1 m/S 754 mmHg 38%
    13:00 +24°C° 0 mm 1 m/S 753 mmHg 37%
    14:00 +24°C° 0 mm 1 m/S 753 mmHg 36%
    15:00 +25°C° 0 mm 1 m/S 752 mmHg 35%
    16:00 +24°C° 0 mm 1 m/S 752 mmHg 39%
    17:00 +23°C° 0 mm 1 m/S 752 mmHg 43%
    18:00 +23°C° 0 mm 1 m/S 752 mmHg 47%
    19:00 +22°C° 0 mm 1 m/S 752 mmHg 48%
    20:00 +21°C° 0 mm 1 m/S 752 mmHg 50%
    21:00 +20°C° 0 mm 1 m/S 752 mmHg 51%
    22:00 +19°C° 0 mm 2 m/S 751 mmHg 52%
    23:00 +18°C° 0 mm 2 m/S 751 mmHg 54%

    27 April, Samstag

    Zeit Temperatur Niederschläge Wind Luftdruck Luftfeuchtigkeit
    00:00 +18°C° 0 mm 2 m/S 751 mmHg 55%
    01:00 +17°C° 0 mm 2 m/S 751 mmHg 56%
    02:00 +18°C° 0 mm 1 m/S 751 mmHg 57%
    03:00 +18°C° 0 mm 1 m/S 750 mmHg 59%
    04:00 +18°C° 0 mm 1 m/S 750 mmHg 60%
    05:00 +16°C° 0 mm 0 m/S 750 mmHg 62%
    06:00 +16°C° 0 mm 0 m/S 750 mmHg 63%
    07:00 +16°C° 0 mm 0 m/S 751 mmHg 61%
    08:00 +17°C° 0 mm 0 m/S 751 mmHg 60%
    09:00 +18°C° 0 mm 0 m/S 751 mmHg 58%
    10:00 +19°C° 0 mm 0 m/S 751 mmHg 52%
    11:00 +20°C° 0 mm 0 m/S 751 mmHg 47%
    12:00 +22°C° 0 mm 0 m/S 751 mmHg 41%
    13:00 +24°C° 0 mm 1 m/S 751 mmHg 42%
    14:00 +23°C° 0 mm 1 m/S 750 mmHg 42%
    15:00 +23°C° 0 mm 1 m/S 750 mmHg 43%
    16:00 +21°C° 0 mm 2 m/S 750 mmHg 48%
    17:00 +20°C° 0 mm 2 m/S 750 mmHg 53%
    18:00 +19°C° 0 mm 3 m/S 750 mmHg 57%
    19:00 +18°C° 0 mm 2 m/S 750 mmHg 59%
    20:00 +18°C° 0 mm 1 m/S 750 mmHg 61%
    21:00 +16°C° 0 mm 1 m/S 750 mmHg 63%
    22:00 +16°C° 0 mm 1 m/S 750 mmHg 65%
    23:00 +16°C° 0 mm 1 m/S 751 mmHg 67%
    Mehr zeigen